Location: Tel Aviv
(32.0670°N, 34.7670°E)
Time: 04:03:37
(UTC+03:00)

Tiros 1 - Pass Details

Date: 21 January 2022
Orbit: 629 x 663 km, 48.4° (Epoch: 26 May)

Event Time Altitude Azimuth Distance (km) Brightness Sun altitude
Rises 07:34:16 0° 298° (WNW) 2,948 9.9 9.4°
Reaches altitude 10° 07:36:54 10° 286° (WNW) 2,029 9.1 9.8°
Maximum altitude 07:40:47 26° 229° (SW) 1,238 8.5 10.5°
Drops below altitude 10° 07:44:38 10° 172° (S) 2,004 10.4 11.2°
Sets 07:47:13 0° 160° (SSE) 2,904 11.4 11.7°
